When you browse on this site, cookies collect data to enhance your experience and personalize the content and advertising you see.
Visit our Privacy Policy to learn more. By continuing to use the site, you agree to this use of cookies and data.

Meteo orario San Gallo

Oggi, 9 Luglio, Giovedi

Tempo Temperatura Precipitazioni Vento Pressione Umidità
00:00 +16°C° 0 mm 1 m/s 714 mm Hg 86%
01:00 +16°C° 0 mm 1 m/s 714 mm Hg 85%
02:00 +15°C° 0 mm 1 m/s 713 mm Hg 84%
03:00 +15°C° 0 mm 1 m/s 713 mm Hg 84%
04:00 +15°C° 0 mm 1 m/s 713 mm Hg 84%
05:00 +16°C° 0 mm 1 m/s 713 mm Hg 80%
06:00 +19°C° 0 mm 1 m/s 713 mm Hg 77%
07:00 +18°C° 0 mm 0 m/s 713 mm Hg 74%
08:00 +22°C° 0 mm 1 m/s 713 mm Hg 67%
09:00 +24°C° 0 mm 1 m/s 714 mm Hg 61%
10:00 +26°C° 0 mm 1 m/s 714 mm Hg 54%
11:00 +27°C° 0 mm 1 m/s 714 mm Hg 51%
12:00 +28°C° 0 mm 1 m/s 713 mm Hg 48%
13:00 +29°C° 0 mm 2 m/s 713 mm Hg 44%
14:00 +29°C° 0 mm 2 m/s 713 mm Hg 44%
15:00 +29°C° 0 mm 2 m/s 713 mm Hg 44%
16:00 +29°C° 0 mm 2 m/s 713 mm Hg 44%
17:00 +28°C° 0 mm 1 m/s 712 mm Hg 52%
18:00 +27°C° 0 mm 1 m/s 712 mm Hg 60%
19:00 +25°C° 0 mm 1 m/s 712 mm Hg 68%
20:00 +24°C° 0 mm 1 m/s 712 mm Hg 70%
21:00 +22°C° 0 mm 1 m/s 712 mm Hg 72%
22:00 +20°C° 0 mm 1 m/s 712 mm Hg 74%
23:00 +20°C° 0 mm 1 m/s 712 mm Hg 75%

Domani, 10 Luglio, Venerdi

Tempo Temperatura Precipitazioni Vento Pressione Umidità
00:00 +20°C° 0 mm 1 m/s 712 mm Hg 76%
01:00 +19°C° 0 mm 1 m/s 712 mm Hg 77%
02:00 +19°C° 0 mm 1 m/s 711 mm Hg 77%
03:00 +19°C° 0 mm 1 m/s 711 mm Hg 77%
04:00 +18°C° 0 mm 1 m/s 711 mm Hg 77%
05:00 +20°C° 0 mm 1 m/s 711 mm Hg 75%
06:00 +21°C° 0 mm 1 m/s 711 mm Hg 73%
07:00 +22°C° 0 mm 1 m/s 711 mm Hg 71%
08:00 +24°C° 0.1 mm 1 m/s 711 mm Hg 66%
09:00 +25°C° 0.1 mm 1 m/s 711 mm Hg 62%
10:00 +27°C° 0.1 mm 2 m/s 711 mm Hg 58%
11:00 +28°C° 0 mm 2 m/s 711 mm Hg 56%
12:00 +28°C° 0 mm 2 m/s 711 mm Hg 54%
13:00 +29°C° 0 mm 3 m/s 711 mm Hg 53%
14:00 +28°C° 1.1 mm 3 m/s 711 mm Hg 64%
15:00 +26°C° 1.1 mm 3 m/s 710 mm Hg 75%
16:00 +25°C° 1.1 mm 3 m/s 710 mm Hg 86%
17:00 +22°C° 3.3 mm 3 m/s 710 mm Hg 88%
18:00 +21°C° 3.3 mm 2 m/s 711 mm Hg 91%
19:00 +20°C° 3.3 mm 2 m/s 711 mm Hg 94%
20:00 +19°C° 1.5 mm 2 m/s 711 mm Hg 94%
21:00 +20°C° 1.5 mm 1 m/s 712 mm Hg 95%
22:00 +19°C° 1.5 mm 1 m/s 712 mm Hg 95%
23:00 +19°C° 1.8 mm 1 m/s 712 mm Hg 95%

Dopodomani, 11 Luglio, Sabato

Tempo Temperatura Precipitazioni Vento Pressione Umidità
00:00 +18°C° 1.8 mm 1 m/s 712 mm Hg 95%
01:00 +18°C° 1.8 mm 1 m/s 712 mm Hg 95%
02:00 +16°C° 1.5 mm 1 m/s 712 mm Hg 95%
03:00 +15°C° 1.5 mm 0 m/s 712 mm Hg 95%
04:00 +14°C° 1.5 mm 0 m/s 712 mm Hg 96%
05:00 +14°C° 1.2 mm 0 m/s 712 mm Hg 96%
06:00 +15°C° 1.2 mm 1 m/s 712 mm Hg 97%
07:00 +15°C° 1.2 mm 1 m/s 712 mm Hg 97%
08:00 +15°C° 1.5 mm 1 m/s 713 mm Hg 96%
09:00 +14°C° 1.5 mm 0 m/s 713 mm Hg 94%
10:00 +15°C° 1.5 mm 0 m/s 714 mm Hg 93%
11:00 +15°C° 1 mm 0 m/s 714 mm Hg 91%
12:00 +18°C° 1 mm 1 m/s 714 mm Hg 88%
13:00 +19°C° 1 mm 1 m/s 714 mm Hg 86%
14:00 +19°C° 0.9 mm 1 m/s 714 mm Hg 86%
15:00 +18°C° 0.9 mm 2 m/s 715 mm Hg 86%
16:00 +18°C° 0.9 mm 2 m/s 715 mm Hg 85%
17:00 +18°C° 0.7 mm 2 m/s 715 mm Hg 87%
18:00 +17°C° 0.7 mm 2 m/s 715 mm Hg 89%
19:00 +18°C° 0.7 mm 1 m/s 715 mm Hg 91%
20:00 +15°C° 0.2 mm 1 m/s 715 mm Hg 91%
21:00 +14°C° 0.2 mm 1 m/s 716 mm Hg 92%
22:00 +13°C° 0.2 mm 1 m/s 716 mm Hg 93%
23:00 +12°C° 0 mm 1 m/s 716 mm Hg 93%

12 Luglio, Domenica

Tempo Temperatura Precipitazioni Vento Pressione Umidità
00:00 +12°C° 0 mm 1 m/s 716 mm Hg 93%
01:00 +11°C° 0 mm 1 m/s 716 mm Hg 93%
02:00 +11°C° 0 mm 1 m/s 716 mm Hg 94%
03:00 +10°C° 0 mm 1 m/s 716 mm Hg 94%
04:00 +10°C° 0 mm 1 m/s 715 mm Hg 94%
05:00 +11°C° 0 mm 1 m/s 716 mm Hg 93%
06:00 +12°C° 0 mm 1 m/s 716 mm Hg 92%
07:00 +13°C° 0 mm 1 m/s 716 mm Hg 91%
08:00 +15°C° 0 mm 1 m/s 716 mm Hg 83%
09:00 +17°C° 0 mm 2 m/s 716 mm Hg 75%
10:00 +18°C° 0 mm 2 m/s 716 mm Hg 66%
11:00 +20°C° 0 mm 2 m/s 716 mm Hg 61%
12:00 +21°C° 0 mm 3 m/s 716 mm Hg 56%
13:00 +22°C° 0 mm 3 m/s 716 mm Hg 51%
14:00 +22°C° 0 mm 4 m/s 716 mm Hg 52%
15:00 +22°C° 0 mm 4 m/s 716 mm Hg 54%
16:00 +22°C° 0 mm 4 m/s 716 mm Hg 55%
17:00 +21°C° 0 mm 4 m/s 716 mm Hg 61%
18:00 +20°C° 0 mm 3 m/s 716 mm Hg 67%
19:00 +18°C° 0 mm 3 m/s 716 mm Hg 72%
20:00 +17°C° 0 mm 2 m/s 716 mm Hg 77%
21:00 +15°C° 0 mm 2 m/s 716 mm Hg 81%
22:00 +13°C° 0 mm 2 m/s 716 mm Hg 86%
23:00 +13°C° 0 mm 1 m/s 716 mm Hg 87%

13 Luglio, Lunedi

Tempo Temperatura Precipitazioni Vento Pressione Umidità
00:00 +12°C° 0 mm 1 m/s 716 mm Hg 88%
01:00 +12°C° 0 mm 1 m/s 716 mm Hg 88%
02:00 +11°C° 0 mm 1 m/s 715 mm Hg 89%
03:00 +11°C° 0 mm 1 m/s 715 mm Hg 90%
04:00 +11°C° 0 mm 1 m/s 715 mm Hg 91%
05:00 +12°C° 0 mm 1 m/s 715 mm Hg 88%
06:00 +13°C° 0 mm 1 m/s 715 mm Hg 84%
07:00 +14°C° 0 mm 1 m/s 715 mm Hg 80%
08:00 +16°C° 0 mm 1 m/s 715 mm Hg 75%
09:00 +18°C° 0 mm 2 m/s 715 mm Hg 69%
10:00 +20°C° 0 mm 2 m/s 715 mm Hg 64%
11:00 +21°C° 0 mm 2 m/s 715 mm Hg 61%
12:00 +23°C° 0 mm 2 m/s 715 mm Hg 57%
13:00 +24°C° 0 mm 2 m/s 715 mm Hg 54%
14:00 +24°C° 0 mm 3 m/s 715 mm Hg 55%
15:00 +24°C° 0 mm 3 m/s 714 mm Hg 55%
16:00 +24°C° 0 mm 3 m/s 714 mm Hg 56%
17:00 +22°C° 0 mm 3 m/s 714 mm Hg 62%
18:00 +21°C° 0 mm 3 m/s 714 mm Hg 69%
19:00 +20°C° 0 mm 2 m/s 713 mm Hg 75%
20:00 +18°C° 0 mm 2 m/s 713 mm Hg 80%
21:00 +16°C° 0 mm 1 m/s 713 mm Hg 85%
22:00 +14°C° 0 mm 1 m/s 713 mm Hg 89%
23:00 +14°C° 0 mm 1 m/s 713 mm Hg 90%

14 Luglio, Martedi

Tempo Temperatura Precipitazioni Vento Pressione Umidità
00:00 +13°C° 0 mm 1 m/s 713 mm Hg 91%
01:00 +13°C° 0 mm 1 m/s 712 mm Hg 92%
02:00 +12°C° 0 mm 1 m/s 712 mm Hg 93%
03:00 +12°C° 0 mm 1 m/s 712 mm Hg 93%
04:00 +11°C° 0 mm 1 m/s 711 mm Hg 94%
05:00 +12°C° 0 mm 0 m/s 712 mm Hg 90%
06:00 +13°C° 0 mm 0 m/s 712 mm Hg 87%
07:00 +15°C° 0 mm 0 m/s 712 mm Hg 83%
08:00 +19°C° 0 mm 1 m/s 712 mm Hg 77%
09:00 +21°C° 0 mm 1 m/s 712 mm Hg 70%
10:00 +23°C° 0 mm 1 m/s 712 mm Hg 63%
11:00 +24°C° 0 mm 1 m/s 712 mm Hg 59%
12:00 +25°C° 0 mm 1 m/s 712 mm Hg 55%
13:00 +26°C° 0 mm 1 m/s 712 mm Hg 51%
14:00 +26°C° 0 mm 1 m/s 711 mm Hg 51%
15:00 +26°C° 0 mm 1 m/s 711 mm Hg 51%
16:00 +26°C° 0 mm 1 m/s 711 mm Hg 50%
17:00 +25°C° 0 mm 1 m/s 711 mm Hg 58%
18:00 +24°C° 0 mm 1 m/s 711 mm Hg 66%
19:00 +23°C° 0 mm 1 m/s 711 mm Hg 74%
20:00 +21°C° 0 mm 1 m/s 711 mm Hg 77%
21:00 +20°C° 0 mm 1 m/s 711 mm Hg 79%
22:00 +18°C° 0 mm 1 m/s 711 mm Hg 82%
23:00 +18°C° 0 mm 1 m/s 711 mm Hg 82%
Mostrare altro